User: anonymous   Login
Location: Unspecified
(0.0000°N, 0.0000°E)
Time: 11:47:21
(UTC+00:00)
Language:

OBJECT A - Orbit

View from above orbital plane
View from above orbital plane
View from above satellite
View from above satellite

Ground track
Ground track

The orbit data is extracted from the following two-line orbital elements,

1 42910U 98067MZ  18168.96351088  .00012164  00000-0  13032-3 0  9996
2 42910  51.6358   1.9160 0005926 206.2981 153.7714 15.64277528 47504
Epoch (UTC): 17 June 2018 23:07:27
Eccentricity: 0.0005926
inclination: 51.6358°
perigee height: 371 km
apogee height: 379 km
right ascension of ascending node: 1.9160°
argument of perigee: 206.2981°
revolutions per day: 15.64277528
mean anomaly at epoch: 153.7714°
orbit number at epoch: 4750

The dashed part of the orbit path shows where the satellite is in the earth's shadow,  

DLR